ARG1009 SCEL-SAME

Flight info

Callsign ARG1009
Flight time 0h 31m
Altitude 23000
Route NEBEG5D NEBEG NEBEG2Q
Aircraft B38M/M-SDE1FGHILORVWXY/HB1

Departure

Time 2026-04-16 14:21
Airport Comodoro Arturo Merino Benítez International Airport (SCEL)

Arrival

Time 2026-04-16 14:53
Airport Governor Francisco Gabrielli International Airport (SAME)
Time Latitude Longitude Altitude Speed Heading
2026-04-16 14:02 -33.39612 -70.79804 1572 ft 0 kts 176°
2026-04-16 14:13 -33.39602 -70.79805 1565 ft 3 kts 177°
2026-04-16 14:13 -33.39582 -70.79806 1565 ft 3 kts 182°
2026-04-16 14:13 -33.39562 -70.79804 1565 ft 3 kts 190°
2026-04-16 14:13 -33.39543 -70.79798 1565 ft 3 kts 207°
2026-04-16 14:14 -33.39528 -70.79786 1565 ft 3 kts 246°
2026-04-16 14:14 -33.39525 -70.79773 1565 ft 1 kts 268°
2026-04-16 14:14 -33.39525 -70.79771 1565 ft 0 kts 268°
2026-04-16 14:16 -33.39525 -70.79778 1565 ft 3 kts 268°
2026-04-16 14:16 -33.39527 -70.79833 1565 ft 10 kts 268°
2026-04-16 14:16 -33.39530 -70.79926 1565 ft 12 kts 268°
2026-04-16 14:16 -33.39513 -70.80032 1566 ft 14 kts 311°
2026-04-16 14:17 -33.39411 -70.80049 1566 ft 16 kts 358°
2026-04-16 14:17 -33.39288 -70.80056 1566 ft 19 kts 358°
2026-04-16 14:17 -33.39153 -70.80064 1566 ft 20 kts 357°
2026-04-16 14:17 -33.39007 -70.80073 1567 ft 22 kts 357°
2026-04-16 14:18 -33.38853 -70.80081 1567 ft 23 kts 357°
2026-04-16 14:18 -33.38691 -70.80089 1567 ft 24 kts 358°
2026-04-16 14:18 -33.38524 -70.80099 1567 ft 26 kts 356°
2026-04-16 14:18 -33.38335 -70.80109 1566 ft 27 kts 357°
2026-04-16 14:19 -33.38143 -70.80119 1566 ft 28 kts 357°
2026-04-16 14:19 -33.37945 -70.80130 1566 ft 29 kts 358°
2026-04-16 14:19 -33.37741 -70.80141 1566 ft 29 kts 358°
2026-04-16 14:19 -33.37535 -70.80151 1566 ft 30 kts 358°
2026-04-16 14:20 -33.37324 -70.80162 1567 ft 30 kts 357°
2026-04-16 14:20 -33.37150 -70.80181 1567 ft 20 kts 335°
2026-04-16 14:20 -33.37112 -70.80312 1573 ft 16 kts 252°
2026-04-16 14:20 -33.37202 -70.80373 1573 ft 17 kts 178°
2026-04-16 14:21 -33.37381 -70.80363 1574 ft 54 kts 178°
2026-04-16 14:21 -33.38062 -70.80324 1571 ft 139 kts 176°
2026-04-16 14:21 -33.39229 -70.80266 1783 ft 183 kts 178°
2026-04-16 14:21 -33.40498 -70.80204 2771 ft 183 kts 178°
2026-04-16 14:22 -33.41817 -70.80131 3434 ft 196 kts 177°
2026-04-16 14:22 -33.43209 -70.80053 3949 ft 204 kts 177°
2026-04-16 14:22 -33.44640 -70.79974 4560 ft 208 kts 177°
2026-04-16 14:22 -33.46099 -70.79895 5169 ft 212 kts 178°
2026-04-16 14:23 -33.47583 -70.79814 5734 ft 216 kts 178°
2026-04-16 14:23 -33.49081 -70.79735 6254 ft 221 kts 178°
2026-04-16 14:23 -33.50638 -70.79650 6744 ft 230 kts 178°
2026-04-16 14:23 -33.52318 -70.79559 7107 ft 250 kts 178°
2026-04-16 14:24 -33.54075 -70.79442 7791 ft 256 kts 176°
2026-04-16 14:24 -33.55869 -70.79250 8517 ft 261 kts 175°
2026-04-16 14:24 -33.57690 -70.79022 9265 ft 265 kts 174°
2026-04-16 14:24 -33.59540 -70.78782 10012 ft 270 kts 174°
2026-04-16 14:25 -33.61421 -70.78538 10703 ft 274 kts 175°
2026-04-16 14:25 -33.63299 -70.78299 11418 ft 276 kts 175°
2026-04-16 14:25 -33.65221 -70.78059 12143 ft 279 kts 175°
2026-04-16 14:25 -33.67162 -70.77821 12877 ft 282 kts 175°
2026-04-16 14:26 -33.69123 -70.77582 13610 ft 284 kts 175°
2026-04-16 14:26 -33.71096 -70.77341 14311 ft 286 kts 176°
2026-04-16 14:26 -33.73079 -70.77096 14995 ft 287 kts 176°
2026-04-16 14:26 -33.74396 -70.76932 15445 ft 288 kts 177°
2026-04-16 14:27 -33.77068 -70.76234 15998 ft 310 kts 160°
2026-04-16 14:27 -33.79020 -70.74922 16144 ft 335 kts 143°
2026-04-16 14:27 -33.80675 -70.72931 16275 ft 358 kts 126°
2026-04-16 14:27 -33.81895 -70.70238 16410 ft 378 kts 108°
2026-04-16 14:28 -33.82410 -70.67086 16590 ft 393 kts 89°
2026-04-16 14:28 -33.82337 -70.63771 17051 ft 400 kts 86°
2026-04-16 14:28 -33.82234 -70.60406 17627 ft 406 kts 86°
2026-04-16 14:28 -33.82131 -70.56993 18203 ft 411 kts 86°
2026-04-16 14:29 -33.82027 -70.53528 18719 ft 417 kts 86°
2026-04-16 14:29 -33.81921 -70.50027 19222 ft 421 kts 86°
2026-04-16 14:29 -33.81817 -70.46494 19768 ft 425 kts 87°
2026-04-16 14:29 -33.81717 -70.42973 20268 ft 429 kts 87°
2026-04-16 14:30 -33.81613 -70.39373 20763 ft 433 kts 87°
2026-04-16 14:30 -33.81502 -70.35734 21301 ft 437 kts 87°
2026-04-16 14:30 -33.81387 -70.32062 21861 ft 441 kts 87°
2026-04-16 14:30 -33.81270 -70.28366 22339 ft 445 kts 87°
2026-04-16 14:31 -33.81151 -70.24626 22815 ft 449 kts 88°
2026-04-16 14:31 -33.81030 -70.20868 23285 ft 452 kts 88°
2026-04-16 14:31 -33.80909 -70.17075 23771 ft 456 kts 88°
2026-04-16 14:31 -33.80787 -70.13300 24154 ft 460 kts 88°
2026-04-16 14:32 -33.80659 -70.09447 24561 ft 462 kts 88°
2026-04-16 14:32 -33.80529 -70.05572 24956 ft 465 kts 88°
2026-04-16 14:32 -33.80399 -70.01690 25111 ft 465 kts 88°
2026-04-16 14:32 -33.80267 -69.97809 25156 ft 463 kts 88°
2026-04-16 14:33 -33.80134 -69.93946 25155 ft 463 kts 88°
2026-04-16 14:33 -33.80055 -69.91389 25152 ft 462 kts 90°
2026-04-16 14:33 -33.80379 -69.86254 25147 ft 460 kts 98°
2026-04-16 14:33 -33.80766 -69.82493 25170 ft 458 kts 98°
2026-04-16 14:34 -33.81023 -69.79939 25151 ft 455 kts 98°
2026-04-16 14:34 -33.81517 -69.74952 25144 ft 452 kts 98°
2026-04-16 14:34 -33.81884 -69.71203 25132 ft 452 kts 98°
2026-04-16 14:34 -33.82128 -69.68714 25133 ft 452 kts 98°
2026-04-16 14:35 -33.82498 -69.64960 25104 ft 452 kts 98°
2026-04-16 14:35 -33.82867 -69.61212 25107 ft 452 kts 98°
2026-04-16 14:35 -33.83233 -69.57460 25102 ft 452 kts 98°
2026-04-16 14:35 -33.83718 -69.52483 25071 ft 452 kts 98°
2026-04-16 14:36 -33.84082 -69.48736 25059 ft 451 kts 98°
2026-04-16 14:36 -33.84328 -69.46203 25057 ft 451 kts 98°
2026-04-16 14:36 -33.84693 -69.42460 25054 ft 450 kts 98°
2026-04-16 14:36 -33.85175 -69.37502 25017 ft 450 kts 98°
2026-04-16 14:37 -33.85414 -69.35027 25016 ft 450 kts 98°
2026-04-16 14:37 -33.85773 -69.31294 25014 ft 450 kts 98°
2026-04-16 14:37 -33.86131 -69.27557 25010 ft 449 kts 98°
2026-04-16 14:37 -33.86488 -69.23821 24985 ft 450 kts 98°
2026-04-16 14:38 -33.86844 -69.20083 24984 ft 450 kts 98°
2026-04-16 14:38 -33.87196 -69.16347 24986 ft 450 kts 98°
2026-04-16 14:38 -33.87546 -69.12604 24967 ft 450 kts 98°
2026-04-16 14:38 -33.87890 -69.08902 24866 ft 451 kts 98°
2026-04-16 14:39 -33.88237 -69.05151 23775 ft 452 kts 98°
2026-04-16 14:39 -33.88586 -69.01391 22813 ft 450 kts 98°
2026-04-16 14:39 -33.88903 -68.97692 22426 ft 441 kts 94°
2026-04-16 14:39 -33.88582 -68.94046 21866 ft 439 kts 74°
2026-04-16 14:40 -33.87308 -68.90738 21307 ft 435 kts 53°
2026-04-16 14:40 -33.85247 -68.88139 20808 ft 427 kts 34°
2026-04-16 14:40 -33.82665 -68.86471 20287 ft 418 kts 15°
2026-04-16 14:40 -33.79884 -68.85822 19772 ft 411 kts
2026-04-16 14:41 -33.77046 -68.85559 19234 ft 409 kts
2026-04-16 14:41 -33.74217 -68.85307 18714 ft 407 kts
2026-04-16 14:41 -33.71402 -68.85061 18163 ft 406 kts
2026-04-16 14:41 -33.68593 -68.84811 17581 ft 403 kts
2026-04-16 14:42 -33.64902 -68.84472 16854 ft 400 kts
2026-04-16 14:42 -33.63031 -68.84300 16482 ft 398 kts
2026-04-16 14:42 -33.60312 -68.84049 15943 ft 384 kts
2026-04-16 14:42 -33.57661 -68.83806 15422 ft 381 kts
2026-04-16 14:43 -33.55052 -68.83571 14861 ft 381 kts
2026-04-16 14:43 -33.52417 -68.83338 14342 ft 379 kts
2026-04-16 14:43 -33.49793 -68.83105 13797 ft 378 kts
2026-04-16 14:43 -33.47181 -68.82870 13273 ft 374 kts
2026-04-16 14:44 -33.44593 -68.82637 12706 ft 371 kts
2026-04-16 14:44 -33.42042 -68.82408 12132 ft 367 kts
2026-04-16 14:44 -33.39502 -68.82177 11653 ft 362 kts
2026-04-16 14:44 -33.36993 -68.81947 11011 ft 362 kts
2026-04-16 14:45 -33.34504 -68.81716 10596 ft 355 kts
2026-04-16 14:45 -33.32126 -68.81495 10455 ft 340 kts
2026-04-16 14:45 -33.29824 -68.81284 10343 ft 321 kts
2026-04-16 14:45 -33.27684 -68.81087 10138 ft 299 kts
2026-04-16 14:46 -33.25644 -68.80899 9668 ft 290 kts
2026-04-16 14:46 -33.23640 -68.80720 9451 ft 290 kts
2026-04-16 14:46 -33.21616 -68.80542 8821 ft 288 kts
2026-04-16 14:46 -33.19650 -68.80224 8181 ft 283 kts 13°
2026-04-16 14:47 -33.17757 -68.79782 7520 ft 279 kts
2026-04-16 14:47 -33.15839 -68.79732 7069 ft 269 kts 359°
2026-04-16 14:47 -33.14036 -68.79744 6889 ft 249 kts 360°
2026-04-16 14:47 -33.12345 -68.79726 6776 ft 238 kts
2026-04-16 14:48 -33.10728 -68.79701 6674 ft 230 kts
2026-04-16 14:48 -33.09132 -68.79677 6576 ft 229 kts
2026-04-16 14:48 -33.07551 -68.79653 6469 ft 227 kts
2026-04-16 14:48 -33.05974 -68.79629 6355 ft 228 kts
2026-04-16 14:49 -33.04397 -68.79605 6129 ft 226 kts
2026-04-16 14:49 -33.02853 -68.79582 5844 ft 224 kts
2026-04-16 14:49 -33.01296 -68.79559 5559 ft 223 kts
2026-04-16 14:49 -32.99753 -68.79536 5268 ft 222 kts
2026-04-16 14:50 -32.98213 -68.79512 4984 ft 221 kts
2026-04-16 14:50 -32.96682 -68.79489 4705 ft 220 kts
2026-04-16 14:50 -32.95157 -68.79466 4416 ft 219 kts
2026-04-16 14:50 -32.93659 -68.79444 4131 ft 210 kts
2026-04-16 14:51 -32.92262 -68.79423 3890 ft 195 kts
2026-04-16 14:51 -32.90954 -68.79404 3620 ft 181 kts
2026-04-16 14:51 -32.89744 -68.79386 3391 ft 167 kts
2026-04-16 14:51 -32.88626 -68.79369 3185 ft 154 kts
2026-04-16 14:53 -32.83156 -68.79346 2358 ft 14 kts 282°
2026-04-16 14:53 -32.83188 -68.79445 2359 ft 13 kts 224°
2026-04-16 14:54 -32.83224 -68.79512 2359 ft 4 kts 308°
2026-04-16 14:54 -32.83193 -68.79517 2359 ft 9 kts 353°
2026-04-16 14:54 -32.83101 -68.79513 2359 ft 15 kts
2026-04-16 14:54 -32.83002 -68.79550 2359 ft 16 kts 320°
2026-04-16 14:55 -32.82933 -68.79643 2362 ft 14 kts 278°
2026-04-16 14:55 -32.82893 -68.79709 2361 ft 11 kts 355°
2026-04-16 14:55 -32.82814 -68.79708 2361 ft 12 kts
2026-04-16 14:55 -32.82762 -68.79731 2361 ft 6 kts 281°
2026-04-16 14:56 -32.82764 -68.79779 2361 ft 2 kts 265°